Dewpoint
50 50 52 50 49 48 51 47 48 52 51 48 45 44 44 47 47 47 46 49 48 51 48 51 58 55 55 58 55 53 54 56 55 58 61 61 68 71 73 73 73 73 73 74 73 72 73 73 72 73 73 73 72 73 73 73 72 73 73 73 73 73 73 73 73 71 70 70 70 71 72 72 73 73
51 51 53 51 48 49 50 50 49 54 53 49 47 46 46 47 48 49 48 49 50 48 50 51 54 57 55 52 53 50 52 60 52 54 58 60 60 68 68 69 70 73 74 74 74 74 73 73 73 73 73 73 72 72 72 72 72 73 73 73 73 73 73 73 72 70 70 70 70 70 71 72 73 73
52 55 55 52 50 51 49 54 56 52 51 48 50 49 50 51 51 53 51 47 49 48 46 48 52 51 53 50 51 49 51 53 51 53 55 57 66 67 62 70 71 73 73 73 74 74 74 74 74 73 72 73 73 73 72 71 72 72 73 73 73 73 73 72 72 71 71 71 71 71 71 72 72 73
54 54 53 54 54 52 52 52 50 49 51 50 50 51 52 54 55 56 55 54 51 49 46 44 46 47 49 50 49 49 49 51 59 53 52 55 63 58 56 71 73 73 73 73 73 73 74 74 74 74 73 73 73 73 73 73 72 72 72 72 72 71 71 71 71 71 71 71 71 71 71 72 72 73
53 56 56 56 55 54 50 50 46 48 49 50 51 51 51 50 52 54 56 54 54 54 53 51 50 50 50 48 48 46 47 50 50 56 52 53 52 54 55 62 71 73 73 73 73 73 73 74 73 74 73 71 73 73 73 73 73 72 72 72 72 71 70 70 70 70 71 71 71 72 72 72 72 73
53 54 57 56 53 53 53 53 49 48 46 48 48 48 49 49 50 53 52 52 53 53 53 51 52 50 49 48 50 51 51 51 52 50 49 49 51 51 55 55 66 71 72 72 72 72 72 72 73 73 73 72 72 73 73 73 73 72 72 72 71 71 71 70 70 71 70 70 70 71 71 71 72 72
55 54 56 55 55 52 52 52 51 50 47 47 47 48 48 48 49 50 51 52 51 51 52 53 51 52 52 52 52 53 52 57 55 54 48 44 43 45 49 54 52 69 69 69 71 72 72 72 72 73 73 73 73 73 73 73 73 72 71 70 70 70 70 70 70 69 69 70 70 70 70 71 71 72
55 56 56 54 54 55 55 54 50 48 49 48 48 48 49 50 49 50 50 54 54 49 49 53 51 51 52 52 52 53 54 54 55 55 55 51 48 48 47 50 49 66 68 69 69 69 70 70 70 71 71 72 73 72 71 71 71 70 70 69 69 70 70 69 69 69 69 69 69 70 70 70 71 71
57 57 56 54 54 55 54 53 50 50 50 50 50 48 50 50 49 48 50 51 51 52 50 49 51 52 51 52 54 54 53 53 53 57 56 55 51 48 45 47 50 68 68 67 67 67 68 68 68 69 69 70 71 71 70 70 70 69 69 68 68 68 68 68 68 68 69 69 69 69 69 69 69 69
59 58 55 54 58 57 57 53 54 55 53 51 49 49 50 50 49 50 51 52 53 51 51 52 47 53 49 54 56 57 57 55 55 52 53 54 53 49 47 48 49 51 51 55 61 67 67 67 67 68 68 69 70 70 70 69 69 68 67 67 67 67 67 68 68 67 68 68 68 68 68 69 69 70
56 58 57 59 59 60 58 56 55 53 52 51 52 53 53 50 52 53 54 53 52 53 51 50 51 52 54 57 57 58 59 59 58 57 56 55 53 54 51 52 49 51 52 62 67 65 66 68 68 65 67 69 70 70 69 70 69 68 67 65 66 67 67 67 67 67 67 67 67 66 66 67 69 69
54 56 55 57 58 59 61 59 57 55 54 54 51 51 53 56 55 55 53 54 56 55 54 55 55 57 58 59 60 60 60 59 58 57 57 56 56 56 56 55 56 55 56 55 54 65 63 66 68 67 69 69 70 70 70 70 70 69 67 67 67 67 67 67 67 67 67 67 66 65 64 64 65 67
58 58 56 57 56 60 60 60 60 59 60 57 56 57 58 58 57 57 57 56 56 57 56 57 57 56 57 57 58 58 58 58 57 59 58 58 56 57 57 57 57 57 56 55 52 52 55 59 62 63 65 69 71 71 70 70 70 70 67 67 67 67 67 67 66 66 65 65 65 64 64 62 61 63
57 56 56 56 58 57 59 59 58 59 60 60 59 58 58 58 58 57 57 56 55 58 58 57 56 55 55 57 57 57 58 59 60 60 60 58 59 59 58 58 57 57 55 53 56 56 55 56 58 59 59 64 68 66 71 69 69 69 67 67 67 67 67 66 66 65 65 64 64 64 63 62 62 62
56 55 56 55 56 58 58 58 60 61 59 60 59 60 59 59 58 58 57 55 56 57 57 57 56 55 56 56 58 57 57 57 58 59 59 59 59 59 59 57 58 63 64 64 62 61 60 60 60 61 62 62 63 59 67 66 69 69 67 67 67 67 66 66 65 65 64 63 62 62 62 62 62 61
56 57 56 56 57 57 58 59 59 59 59 59 59 59 59 59 58 60 60 59 58 59 58 58 57 56 56 57 58 56 56 58 58 59 59 60 59 59 58 57 57 61 64 62 61 60 60 61 61 61 63 64 63 64 64 65 67 68 67 67 66 66 66 65 65 64 64 63 62 62 61 62 62 61
57 58 58 58 58 56 59 60 59 59 59 59 60 60 60 60 58 58 58 59 61 60 59 58 59 57 60 58 58 58 59 61 57 58 57 59 59 60 58 57 58 60 64 63 60 57 59 60 59 58 59 62 64 61 64 64 66 67 66 66 65 65 65 64 64 64 63 63 62 62 61 61 61 60
58 59 60 59 58 58 58 59 58 58 59 59 60 60 59 58 57 58 57 58 60 60 59 59 59 59 60 59 60 60 61 62 58 58 60 61 59 59 59 59 60 61 61 61 60 59 58 58 57 57 56 58 61 67 63 64 65 65 65 65 65 65 65 64 64 64 64 63 62 62 61 61 60 60
58 60 59 59 59 58 59 59 59 59 59 59 59 59 59 57 57 58 59 58 59 59 59 58 58 58 59 59 60 60 62 62 61 59 60 61 61 60 61 59 61 60 61 62 61 57 57 58 58 58 58 57 64 65 62 63 63 63 63 63 63 63 63 64 64 64 64 63 63 62 61 61 60 60
60 60 60 59 58 58 60 59 60 60 60 59 59 59 60 58 57 58 58 59 59 61 61 60 60 60 59 59 61 61 61 61 62 62 61 60 61 60 58 57 58 57 57 59 60 58 57 58 56 59 58 60 65 64 64 61 61 61 61 61 60 60 61 61 61 61 62 62 62 62 61 60 60 60
60 59 60 59 57 57 60 59 59 59 60 60 59 59 58 58 58 58 59 58 59 60 60 61 60 61 60 60 60 60 60 61 62 61 60 59 59 59 59 57 57 56 58 64 61 58 57 60 61 58 62 62 64 64 63 62 59 59 59 59 59 59 58 59 59 60 60 60 61 61 61 60 60 60
59 58 60 59 58 58 59 59 59 59 60 59 59 59 58 58 58 58 58 59 59 60 60 60 60 60 60 60 60 60 60 60 61 61 59 59 60 60 60 59 58 59 58 61 61 59 58 60 62 60 61 61 64 63 62 61 60 58 58 58 58 58 57 57 58 58 59 59 60 60 61 60 59 63
57 58 58 60 60 59 60 58 58 58 59 58 58 58 57 56 57 56 57 59 59 61 59 61 60 61 59 61 60 61 59 60 60 62 61 62 61 60 58 58 59 57 58 57 61 57 60 61 62 62 58 60 61 64 63 64 63 63 62 60 60 58 57 57 56 57 57 58 58 59 60 59 58 64
57 58 58 58 60 58 58 57 56 57 58 59 59 58 57 56 56 56 58 59 59 60 60 59 59 60 60 61 61 60 61 61 62 61 61 61 61 59 59 58 59 56 59 63 62 59 61 62 62 62 58 58 58 61 62 61 62 62 62 62 61 58 58 56 56 56 56 56 55 55 57 59 57 63
56 57 57 58 60 57 57 56 55 55 56 59 59 58 57 57 58 59 58 59 59 59 60 59 59 59 60 60 62 61 62 63 62 63 61 62 61 61 60 58 58 60 63 63 61 61 60 60 59 63 62 62 61 60 59 59 59 59 60 60 60 61 62 61 60 60 55 55 54 54 55 56 55 59
56 57 57 58 59 57 56 56 54 54 56 58 57 57 55 56 58 58 59 59 58 59 59 60 58 57 60 61 59 60 62 60 59 60 60 61 62 61 61 61 61 60 60 63 62 62 63 59 60 59 61 60 60 61 58 57 57 57 58 58 58 59 60 60 60 60 61 60 60 57 57 56 57 56
56 57 58 58 59 56 53 52 54 54 56 57 56 54 55 56 58 59 58 58 58 60 58 58 58 58 59 59 59 61 62 61 60 60 61 60 61 61 61 62 61 62 61 62 62 64 63 62 63 60 59 60 58 59 58 56 56 57 57 57 57 58 59 59 58 58 58 59 59 57 56 57 57 57
56 57 58 58 56 53 51 52 54 56 58 56 54 54 56 58 57 58 58 58 59 58 57 58 57 57 59 59 62 60 60 60 60 59 59 60 60 60 60 60 61 61 61 62 61 62 61 62 62 63 64 61 57 57 56 56 56 56 56 57 57 57 57 58 58 58 58 58 57 58 59 59 60 62
57 58 55 54 54 55 54 55 57 58 57 56 56 57 57 56 56 57 56 58 58 58 57 57 58 58 58 61 60 60 61 61 60 59 58 59 59 59 59 59 59 59 59 60 60 62 62 65 62 62 62 62 60 58 56 55 56 57 57 56 55 56 57 57 56 57 56 56 56 56 57 58 58 59
59 57 56 56 56 58 58 59 59 57 57 57 56 56 56 56 55 56 56 58 58 58 57 57 56 57 60 62 63 61 61 59 58 58 58 58 58 58 58 57 57 57 56 58 58 59 61 62 62 61 60 61 60 58 57 55 55 56 57 56 55 55 58 58 57 56 55 54 54 55 55 57 57 58
57 57 57 57 58 59 60 60 56 55 56 56 55 55 55 56 55 55 57 58 58 57 57 58 57 57 59 61 62 59 58 58 58 58 59 57 57 57 56 55 55 54 55 55 56 57 58 59 59 59 58 57 57 57 56 55 55 55 55 56 56 53 56 56 55 54 54 54 54 54 54 54 55 57
58 57 55 56 57 57 56 56 54 56 56 55 55 54 55 55 56 56 56 56 57 57 57 57 59 58 58 58 58 57 57 57 57 58 58 57 57 57 56 55 54 54 54 55 54 56 56 56 56 56 56 55 53 54 55 55 54 54 53 55 55 56 56 54 53 54 55 55 53 53 53 53 53 55
57 56 56 56 55 55 55 54 54 54 53 54 54 54 54 54 55 55 55 55 56 57 57 57 58 56 57 58 57 57 56 57 56 57 58 58 56 56 55 54 54 53 53 52 53 54 54 54 55 54 54 53 54 54 53 51 52 53 54 55 54 55 55 54 53 54 55 54 53 53 53 52 53 54
56 54 54 53 53 53 53 53 53 53 52 52 52 53 54 53 53 54 54 55 55 56 56 56 56 56 56 56 56 56 56 56 56 57 57 56 56 55 53 53 54 54 54 53 54 54 54 54 54 53 53 52 52 52 52 52 52 53 53 53 54 53 52 53 52 53 53 52 53 52 51 51 52 53
50 52 53 53 53 52 53 53 53 53 52 52 52 52 52 52 53 53 53 54 55 54 54 55 56 56 56 56 56 55 55 55 56 56 56 56 55 54 54 54 56 57 56 56 56 57 57 56 56 55 55 53 51 51 50 52 52 51 51 51 51 51 51 51 51 52 52 51 51 51 51 51 51 51
49 51 52 53 52 53 53 53 54 53 52 52 52 52 52 52 52 53 53 54 55 53 54 54 55 55 55 56 56 56 56 56 55 55 55 56 56 55 54 54 54 54 54 54 55 56 57 56 56 54 53 51 50 49 49 50 49 50 50 50 50 51 51 51 51 51 50 50 50 50 49 49 50 51
49 50 52 53 53 53 53 54 53 53 52 52 51 51 52 52 53 53 55 55 55 54 53 53 53 54 55 55 55 55 55 55 55 55 54 54 55 55 54 54 54 53 52 53 54 55 55 54 55 55 53 51 49 47 48 50 48 49 50 50 50 50 50 50 50 49 49 49 49 48 48 48 49 50
51 49 52 53 53 53 54 54 53 53 53 52 52 52 52 52 53 54 55 54 53 54 53 53 53 54 54 54 54 54 54 54 54 54 54 54 54 54 53 53 52 52 51 51 51 51 51 51 51 51 51 49 48 48 47 47 47 47 48 50 50 49 50 49 48 48 48 49 49 49 49 48 48 49
50 50 50 52 53 53 54 53 53 53 54 53 52 52 53 53 52 53 53 52 54 53 53 53 53 53 53 53 53 54 53 53 53 53 53 53 53 54 53 52 51 51 50 50 50 50 50 49 50 49 49 48 47 47 47 46 46 47 47 48 50 50 50 49 48 48 48 48 48 49 49 50 51 51
51 51 50 51 53 53 55 55 54 54 54 53 53 53 53 53 52 52 52 53 53 53 53 53 53 53 53 53 53 53 53 53 53 53 53 52 53 52 52 52 51 51 50 50 49 49 49 49 50 49 49 48 48 48 48 47 47 47 47 47 48 49 51 51 49 49 49 50 50 49 48 49 48 50
51 51 50 51 53 54 55 54 54 54 54 53 54 53 54 54 52 52 52 53 54 53 51 52 53 53 53 53 53 52 52 52 52 52 52 52 52 52 51 52 51 51 50 50 50 49 50 50 51 52 51 51 51 50 48 47 45 46 45 46 47 47 46 47 50 51 50 51 50 49 48 48 49 48
51 51 51 51 53 54 55 55 55 53 54 53 53 52 54 54 54 52 53 55 54 54 53 52 53 53 52 53 52 52 52 52 52 52 52 51 51 52 51 51 50 50 50 49 50 50 52 53 52 52 51 50 49 47 46 45 45 46 46 46 47 47 47 45 45 44 47 50 51 49 49 49 48 47
52 51 51 52 53 54 55 55 55 54 53 52 53 53 53 52 52 52 52 53 54 52 51 51 51 52 52 52 52 52 51 52 52 52 51 51 51 50 50 50 50 50 50 50 50 50 51 51 51 50 49 49 48 47 46 46 46 46 46 46 47 47 47 47 47 46 45 44 43 45 49 50 51 47
53 52 52 52 53 54 55 55 55 54 53 53 52 54 52 51 52 52 52 52 52 52 52 52 52 51 52 52 52 52 52 52 52 52 51 51 51 51 50 50 51 51 50 50 50 50 50 50 50 49 48 48 48 47 47 47 46 46 46 46 47 47 46 47 47 46 46 46 46 45 43 43 43 43
53 53 52 52 52 52 54 54 53 54 52 52 51 51 51 52 51 51 52 52 52 52 52 52 52 52 52 52 52 51 52 52 51 51 51 51 51 51 51 51 51 50 50 50 49 49 49 49 49 49 48 48 49 48 48 48 48 47 47 47 47 47 46 45 44 44 44 44 46 47 46 46 46 46